EZY32PD EGAA-EGPH

Flight info

Callsign EZY32PD
Flight time N/A
Altitude 17000
Route BLACA P600 TUNSO
Aircraft A320/M-SDE3FGHIRWY/LB1

Departure

Time 2026-05-04 20:33
Airport Belfast International Airport (EGAA)

Arrival

Time N/A
Airport Edinburgh Airport (EGPH)
Time Latitude Longitude Altitude Speed Heading
2026-05-04 19:36 54.66109 -6.21354 275 ft 0 kts 245°
2026-05-04 19:36 54.66110 -6.21354 275 ft 0 kts 245°
2026-05-04 19:36 54.66073 -6.21323 273 ft 0 kts 245°
2026-05-04 19:38 54.66074 -6.21323 272 ft 0 kts 245°
2026-05-04 19:56 54.66077 -6.21311 273 ft 4 kts 243°
2026-05-04 19:56 54.66091 -6.21273 257 ft 4 kts 220°
2026-05-04 19:56 54.66113 -6.21254 282 ft 4 kts 168°
2026-05-04 19:56 54.66124 -6.21260 280 ft 1 kts 155°
2026-05-04 19:57 54.66125 -6.21261 280 ft 0 kts 155°
2026-05-04 20:22 54.66116 -6.21254 272 ft 5 kts 155°
2026-05-04 20:22 54.66071 -6.21218 272 ft 7 kts 155°
2026-05-04 20:23 54.66047 -6.21208 272 ft 2 kts 178°
2026-05-04 20:23 54.66018 -6.21261 272 ft 10 kts 242°
2026-05-04 20:23 54.65986 -6.21381 272 ft 13 kts 245°
2026-05-04 20:23 54.65949 -6.21517 276 ft 10 kts 244°
2026-05-04 20:24 54.65916 -6.21639 272 ft 13 kts 245°
2026-05-04 20:24 54.65899 -6.21701 273 ft 1 kts 245°
2026-05-04 20:24 54.65885 -6.21754 272 ft 9 kts 245°
2026-05-04 20:24 54.65850 -6.21890 274 ft 14 kts 248°
2026-05-04 20:25 54.65822 -6.22004 275 ft 9 kts 245°
2026-05-04 20:25 54.65798 -6.22080 273 ft 10 kts 243°
2026-05-04 20:25 54.65775 -6.22205 272 ft 12 kts 258°
2026-05-04 20:25 54.65763 -6.22349 272 ft 15 kts 263°
2026-05-04 20:26 54.65748 -6.22556 272 ft 18 kts 263°
2026-05-04 20:26 54.65738 -6.22771 272 ft 15 kts 260°
2026-05-04 20:26 54.65693 -6.22939 272 ft 15 kts 235°
2026-05-04 20:26 54.65649 -6.23044 272 ft 9 kts 234°
2026-05-04 20:27 54.65628 -6.23094 272 ft 0 kts 233°
2026-05-04 20:27 54.65626 -6.23098 272 ft 0 kts 234°
2026-05-04 20:29 54.65620 -6.23114 272 ft 5 kts 234°
2026-05-04 20:29 54.65593 -6.23176 272 ft 7 kts 233°
2026-05-04 20:29 54.65559 -6.23257 272 ft 10 kts 233°
2026-05-04 20:30 54.65510 -6.23332 272 ft 12 kts 208°
2026-05-04 20:30 54.65422 -6.23396 272 ft 13 kts 201°
2026-05-04 20:30 54.65357 -6.23390 272 ft 6 kts 161°
2026-05-04 20:30 54.65324 -6.23366 272 ft 5 kts 157°
2026-05-04 20:31 54.65322 -6.23364 272 ft 1 kts 156°
2026-05-04 20:31 54.65302 -6.23349 272 ft 2 kts 155°
2026-05-04 20:31 54.65286 -6.23335 272 ft 2 kts 148°
2026-05-04 20:31 54.65288 -6.23297 272 ft 5 kts 73°
2026-05-04 20:32 54.65295 -6.23270 275 ft 0 kts 66°
2026-05-04 20:32 54.65300 -6.23248 272 ft 18 kts 65°
2026-05-04 20:32 54.65477 -6.22597 272 ft 96 kts 65°
2026-05-04 20:33 54.65842 -6.21263 274 ft 151 kts 63°
2026-05-04 20:33 54.66339 -6.19526 724 ft 162 kts 63°
2026-05-04 20:33 54.66814 -6.17762 1439 ft 161 kts 62°
2026-05-04 20:33 54.67225 -6.16054 1800 ft 154 kts 64°
2026-05-04 20:34 54.67626 -6.14329 1968 ft 156 kts 62°
2026-05-04 20:34 54.68062 -6.12541 1978 ft 168 kts 62°
2026-05-04 20:34 54.68537 -6.10629 1990 ft 178 kts 62°
2026-05-04 20:34 54.69040 -6.08618 2008 ft 187 kts 62°
2026-05-04 20:35 54.69567 -6.06517 2014 ft 194 kts 62°
2026-05-04 20:35 54.70118 -6.04339 2019 ft 203 kts 62°
2026-05-04 20:35 54.70708 -6.02043 2018 ft 214 kts 62°
2026-05-04 20:35 54.71331 -5.99633 2006 ft 227 kts 62°
2026-05-04 20:36 54.71996 -5.97075 2020 ft 236 kts 62°
2026-05-04 20:36 54.72689 -5.94425 2032 ft 241 kts 62°
2026-05-04 20:36 54.73374 -5.91872 2032 ft 227 kts 61°
2026-05-04 20:36 54.74034 -5.89413 2029 ft 224 kts 62°
2026-05-04 20:37 54.74678 -5.86949 2027 ft 225 kts 62°
2026-05-04 20:37 54.75097 -5.85318 2027 ft 224 kts 63°
2026-05-04 20:37 54.75729 -5.82855 2030 ft 224 kts 62°
2026-05-04 20:37 54.76360 -5.80385 2028 ft 224 kts 63°
2026-05-04 20:38 54.76991 -5.77916 2029 ft 224 kts 62°
2026-05-04 20:38 54.77614 -5.75424 2303 ft 226 kts 63°
2026-05-04 20:38 54.78229 -5.72917 2615 ft 227 kts 63°
2026-05-04 20:38 54.78850 -5.70396 2878 ft 231 kts 63°
2026-05-04 20:39 54.79491 -5.67866 2914 ft 229 kts 63°
2026-05-04 20:39 54.80126 -5.65337 3266 ft 229 kts 63°
2026-05-04 20:39 54.80759 -5.62799 3588 ft 230 kts 63°
2026-05-04 20:39 54.81397 -5.60247 3890 ft 231 kts 63°
2026-05-04 20:40 54.82046 -5.57680 4000 ft 233 kts 64°
2026-05-04 20:40 54.82376 -5.54936 4018 ft 237 kts 92°
2026-05-04 20:40 54.81847 -5.52256 4020 ft 239 kts 127°
2026-05-04 20:40 54.80574 -5.50486 4024 ft 236 kts 160°
2026-05-04 20:41 54.78980 -5.50115 4023 ft 230 kts 192°
2026-05-04 20:41 54.77552 -5.51119 4024 ft 224 kts 221°
2026-05-04 20:41 54.76587 -5.53150 4029 ft 218 kts 246°
2026-05-04 20:41 54.75946 -5.55518 4030 ft 217 kts 249°
2026-05-04 20:42 54.75378 -5.57935 4029 ft 216 kts 256°
2026-05-04 20:42 54.74989 -5.60445 4030 ft 216 kts 259°
2026-05-04 20:42 54.74643 -5.62965 4034 ft 215 kts 259°
2026-05-04 20:42 54.74228 -5.65456 4033 ft 215 kts 257°
2026-05-04 20:43 54.73863 -5.67966 4033 ft 215 kts 259°
2026-05-04 20:43 54.73523 -5.70485 4034 ft 215 kts 259°
2026-05-04 20:43 54.73186 -5.72999 4034 ft 214 kts 259°
2026-05-04 20:43 54.72850 -5.75513 4039 ft 214 kts 259°
2026-05-04 20:44 54.72514 -5.78021 4035 ft 214 kts 259°
2026-05-04 20:44 54.72181 -5.80532 4037 ft 215 kts 259°
2026-05-04 20:44 54.71627 -5.82926 4038 ft 218 kts 237°
2026-05-04 20:44 54.70647 -5.84941 4040 ft 220 kts 230°
2026-05-04 20:45 54.69600 -5.86864 4038 ft 220 kts 229°
2026-05-04 20:45 54.68544 -5.88784 4037 ft 220 kts 229°
2026-05-04 20:45 54.67487 -5.90701 4038 ft 220 kts 229°
2026-05-04 20:45 54.66428 -5.92619 4037 ft 221 kts 229°
2026-05-04 20:46 54.65370 -5.94540 4034 ft 221 kts 229°
2026-05-04 20:46 54.64313 -5.96463 4035 ft 221 kts 229°
2026-05-04 20:46 54.63258 -5.98388 4036 ft 221 kts 229°
2026-05-04 20:46 54.62201 -6.00312 4036 ft 221 kts 229°
2026-05-04 20:47 54.61143 -6.02236 4037 ft 221 kts 229°
2026-05-04 20:47 54.60096 -6.04174 4033 ft 220 kts 234°
2026-05-04 20:47 54.59329 -6.06432 4035 ft 218 kts 247°
2026-05-04 20:47 54.58716 -6.08823 4035 ft 218 kts 249°
2026-05-04 20:48 54.58124 -6.11230 4038 ft 218 kts 249°
2026-05-04 20:48 54.57536 -6.13637 4037 ft 218 kts 249°
2026-05-04 20:48 54.56947 -6.16048 4039 ft 218 kts 249°
2026-05-04 20:48 54.56361 -6.18454 4035 ft 218 kts 249°
2026-05-04 20:49 54.55775 -6.20866 4038 ft 218 kts 249°
2026-05-04 20:49 54.55188 -6.23293 4040 ft 223 kts 249°
2026-05-04 20:49 54.54412 -6.25584 4036 ft 221 kts 238°
2026-05-04 20:49 54.53702 -6.27895 4042 ft 218 kts 248°
2026-05-04 20:50 54.53104 -6.30300 4036 ft 218 kts 249°
2026-05-04 20:50 54.52522 -6.32709 4037 ft 218 kts 249°
2026-05-04 20:50 54.51941 -6.35125 4037 ft 219 kts 249°
2026-05-04 20:50 54.51360 -6.37545 4035 ft 219 kts 249°
2026-05-04 20:51 54.50779 -6.39964 4037 ft 219 kts 249°
2026-05-04 20:51 54.50280 -6.42427 4029 ft 218 kts 265°
2026-05-04 20:51 54.50532 -6.44924 4032 ft 215 kts 300°
2026-05-04 20:51 54.51587 -6.46699 4035 ft 216 kts 328°
2026-05-04 20:52 54.52903 -6.47871 3965 ft 215 kts 333°
2026-05-04 20:52 54.54251 -6.48977 3685 ft 214 kts 334°
2026-05-04 20:52 54.55604 -6.50034 3413 ft 214 kts 341°
2026-05-04 20:52 54.57075 -6.50089 3141 ft 216 kts 16°
2026-05-04 20:53 54.58365 -6.48759 3034 ft 220 kts 36°
2026-05-04 20:53 54.59506 -6.46995 3062 ft 222 kts 44°
2026-05-04 20:53 54.60317 -6.44728 3044 ft 226 kts 69°
2026-05-04 20:53 54.60612 -6.42075 3034 ft 222 kts 83°
2026-05-04 20:54 54.60798 -6.39398 2770 ft 226 kts 73°
2026-05-04 20:54 54.61339 -6.36903 2179 ft 220 kts 58°
2026-05-04 20:54 54.62033 -6.34692 1904 ft 204 kts 53°
2026-05-04 20:54 54.62743 -6.32623 1593 ft 198 kts 60°
2026-05-04 20:55 54.63334 -6.30479 1468 ft 200 kts 63°
2026-05-04 20:55 54.63901 -6.28317 978 ft 195 kts 62°
2026-05-04 20:55 54.64494 -6.26249 628 ft 187 kts 63°
2026-05-04 20:55 54.65010 -6.24316 405 ft 171 kts 61°
2026-05-04 20:56 54.65487 -6.22614 315 ft 145 kts 66°
2026-05-04 20:56 54.65860 -6.21184 274 ft 115 kts 68°
2026-05-04 20:56 54.66064 -6.20402 272 ft 43 kts 65°
2026-05-04 20:56 54.66189 -6.19960 272 ft 35 kts 64°
2026-05-04 20:57 54.66264 -6.19684 274 ft 9 kts 57°
2026-05-04 20:57 54.66276 -6.19665 272 ft 3 kts 28°
2026-05-04 20:57 54.66328 -6.19686 272 ft 13 kts 337°
2026-05-04 20:57 54.66391 -6.19794 272 ft 10 kts 288°
2026-05-04 20:58 54.66380 -6.19915 273 ft 11 kts 247°
2026-05-04 20:58 54.66344 -6.20054 272 ft 15 kts 245°
2026-05-04 20:58 54.66292 -6.20248 272 ft 18 kts 248°